Location: Apeadero de Los Molinos-Guadarrama
(40.7091°N, 4.0689°W)
Time: 13:02:40
(UTC+00:00)

Cosmos 1544 - Pass Details

Date: 14 May 2021
Orbit: 471 x 487 km, 82.5° (Epoch: 18 June)

Event Time Altitude Azimuth Distance (km) Brightness Sun altitude
Rises 21:48:23 0° 359° (N) 2,538 7.6 -21.7°
Reaches altitude 10° 21:50:34 10° 6° (N) 1,657 6.4 -21.9°
Enters shadow 21:53:17 37° 45° (NE) 760 4.0 -22.2°
